Regional Weather Roundup
Issued by NWS Mt. Holly, NJ

Home | Current Version | Previous Version | Text Only | Print | Product List | Glossary On
Versions: 1 2 3 4 5 6 7 8 9 10 11 12 13 14 15 16 17 18 19 20 21 22 23 24 25 26 27
000
ASUS41 KPHI 231513
RWRPHI

REGIONAL WEATHER ROUNDUP
NATIONAL WEATHER SERVICE MOUNT HOLLY NJ
1100 AM EDT MON APR 23 2018

NOTE:  "FAIR" INDICATES FEW OR NO CLOUDS BELOW 12,000 FEET WITH NO
SIGNIFICANT WEATHER AND/OR OBSTRUCTIONS TO VISIBILITY.

 * = STATION DOES NOT REPORT PRECIPITATION (E.G. RAIN, SNOW, ETC.)
        OR FOG.

NJZ015>026-231600-
SOUTHERN NEW JERSEY

CITY           SKY/WX    TMP DP  RH WIND       PRES   REMARKS
POMONA         FAIR      63  34  33 CALM      30.47S
WILDWOOD*      FAIR      59  41  51 E8        30.48S
MILLVILLE      FAIR      63  32  31 CALM      30.46S
WRIGHTSTOWN    FAIR      64  29  27 NE7       30.44S
MOUNT HOLLY    FAIR      61  36  39 E5        30.47S
TRENTON        FAIR      62  30  29 E8        30.46F

$$
NJZ001>014-231600-
NORTHERN NEW JERSEY

CITY           SKY/WX    TMP DP  RH WIND       PRES   REMARKS
SUSSEX         FAIR      60  26  27 N3        30.47F
ANDOVER*         N/A     62  24  23 CALM      30.47S
MORRISTOWN     MOSUNNY   61  23  23 NE6       30.49F
NEWARK         FAIR      59  30  33 E7        30.48S
TETERBORO      FAIR      59  21  23 E8G18     30.48S
CALDWELL       FAIR      59  25  27 E9        30.49S
SOMERVILLE     FAIR      62  32  32 CALM      30.45F
ALLAIRE*       FAIR      58  30  34 E9        30.49S
TOMS RIVER*    FAIR      61  32  33 VRB6      30.47F

$$
PAZ043-044-047-054-055-060>062-066>071-231600-
EASTERN PENNSYLVANIA

CITY           SKY/WX    TMP DP  RH WIND       PRES   REMARKS
PHILADELPHIA   FAIR      63  36  36 VRB3      30.46F
NORTH PHILA    FAIR      63  33  32 VRB6      30.48S
BLUE BELL*     FAIR      61  32  33 NE3       30.47S
DOYLESTOWN     FAIR      62  26  25 CALM      30.46S
QUAKERTOWN*    SUNNY     63  27  25 E6        30.46S
PERKASIE*      FAIR      61  28  29 E7        30.47S
POTTSTOWN      FAIR      61  34  36 VRB5      30.47S
LANCASTER      FAIR      62  38  40 SE5       30.44S
COATESVILLE    FAIR      63  32  31 S7        30.45F
READING        FAIR      63  37  38 CALM      30.43F
ALLENTOWN      FAIR      62  26  25 E8        30.46F
MOUNT POCONO   FAIR      55  17  22 VRB6      30.45F
HAZLETON       FAIR      61  18  18 E5        30.47S
LEHIGHTON      FAIR      59  23  25 E3        30.46F
WILKES BARRE   FAIR      61  22  22 N5        30.44F

$$
DEZALL-MDZ008-012-015-019-020-231600-
DELAWARE AND EASTERN MARYLAND

CITY           SKY/WX    TMP DP  RH WIND       PRES   REMARKS
WILMINGTON     FAIR      61  39  44 SE6       30.46F
DOVER          MOSUNNY   58  42  56 E9        30.46S
GEORGETOWN     FAIR      62  35  36 SE10      30.46S
EASTON         MOSUNNY   64  41  42 E8        30.48F
ABERDEEN       MOSUNNY   61  33  34 S5        30.45F
PATUXENT       PTSUNNY   61  45  55 SE8       30.44
OCEAN CITY     FAIR      56  40  55 VRB6      30.48R
WALLOPS ISLAND PTSUNNY   63  35  35 SE13      30.47R
CAMBRIDGE      SUNNY     63  46  55 E7        30.44F
SALISBURY      FAIR      63  36  36 E12       30.45S

$$
PAZ001-021-NYZ056-072-MDZ011-DCZ001-231600-
OTHER NEARBY LOCATIONS

CITY           SKY/WX    TMP DP  RH WIND       PRES   REMARKS
HARRISBURG     FAIR      63  39  41 CALM      30.43S
STATE COLLEGE  SUNNY     59  32  36 SW6       30.40F
WILLIAMSPORT   FAIR      62  32  32 SE7       30.42F
BINGHAMTON     FAIR      57  20  23 VRB6      30.44S
NEW YORK CITY  FAIR      59  27  29 VRB3      30.51S
BALTIMORE      PTSUNNY   61  46  57 E7        30.43S
WASHINGTON DC  CLOUDY    63  44  50 CALM      30.43F

$$




USA.gov is the U.S. government's official web portal to all federal, state and local government web resources and services.